GW5713 Weather Reports


time (UTC)temp
C
wind
direction
speed
KPH
gust
KPH
rain 1hr
cm
rain 24hr
cm
rain mn
cm
humidity
%
barometer
mb
20260502152006 11 233 0.0 0.0 0.00 0.03 0.00 40 1061.9
20260502151508 11 226 0.0 0.0 0.00 0.03 0.00 42 1061.9
20260502151010 11 220 0.0 0.0 0.00 0.03 0.00 41 1061.9
20260502150511 11 218 0.0 0.0 0.00 0.03 0.00 42 1061.9
20260502130515 5 219 0.0 0.0 0.00 0.03 0.00 62 1061.9
20260502123505 2 256 0.0 0.0 0.00 0.03 0.00 71 1061.9
20260502123007 2 254 0.0 0.0 0.00 0.03 0.00 73 1061.9
20260502122509 2 261 0.0 0.0 0.00 0.03 0.00 73 1061.9
20260502122011 2 265 0.0 0.0 0.00 0.03 0.00 73 1061.9
20260502121513 2 266 0.0 0.0 0.00 0.03 0.00 72 1061.9
20260502121015 1 252 0.0 0.0 0.00 0.03 0.00 73 1061.9
20260502120507 1 258 0.0 0.0 0.00 0.03 0.00 73 1061.9
20260502115510 1 230 0.0 0.0 0.00 0.03 0.00 72 1061.9
20260502115012 1 250 0.0 0.0 0.00 0.03 0.00 73 1061.9
20260502114514 1 276 0.0 0.0 0.00 0.03 0.00 74 1061.9
20260502114006 0 290 0.0 0.0 0.00 0.03 0.00 74 1061.9
20260502113507 1 284 0.0 0.0 0.00 0.03 0.00 74 1061.9
20260502113009 1 281 0.0 0.0 0.00 0.03 0.00 71 1061.9
20260502112511 1 281 0.0 0.0 0.00 0.03 0.00 70 1061.9
20260502112012 1 262 0.0 0.0 0.00 0.03 0.00 70 1061.9
20260502111514 1 286 0.0 0.0 0.00 0.03 0.00 70 1061.9
20260502111007 1 281 0.0 0.0 0.00 0.03 0.00 70 1061.9
20260502110509 1 269 0.0 0.0 0.00 0.03 0.00 70 1061.9
20260502110021 1 271 0.0 0.0 0.00 0.03 0.00 70 1061.9
20260502105512 1 281 0.0 0.0 0.00 0.03 0.00 69 1061.9
20260502105014 1 286 0.0 0.0 0.00 0.03 0.00 70 1061.9
20260502104506 1 281 0.0 0.0 0.00 0.03 0.00 70 1061.9
20260502104007 1 274 0.0 0.0 0.00 0.03 0.00 70 1061.9
20260502103510 1 265 0.0 0.0 0.00 0.03 0.00 70 1061.9
20260502103056 1 268 0.0 0.0 0.00 0.03 0.00 70 1061.9
20260502102515 1 276 0.0 0.0 0.00 0.03 0.00 70 1061.9
20260502102007 1 276 0.0 0.0 0.00 0.03 0.00 70 1061.9
20260502101508 1 273 0.0 0.0 0.00 0.03 0.00 70 1061.9
20260502101010 1 272 0.0 0.0 0.00 0.03 0.00 70 1061.9
20260502100512 1 273 0.0 0.0 0.00 0.03 0.00 70 1061.9
20260502091510 2 278 0.0 0.0 0.00 0.03 0.00 67 1061.9
20260502091012 2 282 0.0 0.0 0.00 0.03 0.00 66 1061.9
20260502090515 2 275 0.0 0.0 0.00 0.03 0.00 64 1061.9
20260502071514 4 330 0.0 0.0 0.00 0.03 0.00 58 1061.9
20260502071006 4 329 0.0 0.0 0.00 0.03 0.00 57 1061.9
20260502070508 4 329 0.0 0.0 0.00 0.03 0.00 57 1061.9
20260502070010 4 329 0.0 0.0 0.00 0.03 0.00 57 1061.9
20260502065512 4 330 0.0 0.0 0.00 0.03 0.00 57 1061.9
20260502065014 4 329 0.0 0.0 0.00 0.03 0.00 56 1061.9
20260502064516 5 329 0.0 0.0 0.00 0.03 0.00 56 1061.9
20260502064008 5 329 0.0 0.0 0.00 0.03 0.00 54 1061.9
20260502063509 5 329 0.0 0.0 0.00 0.03 0.00 53 1061.9
20260502063011 5 329 0.0 0.0 0.00 0.03 0.00 51 1061.9
20260502062513 5 329 0.0 0.0 0.00 0.03 0.00 51 1061.9
20260502062014 5 329 0.0 0.0 0.00 0.03 0.00 51 1061.9
20260502061506 5 329 0.0 0.0 0.00 0.03 0.00 51 1061.9
20260502061009 5 329 0.0 0.0 0.00 0.03 0.00 50 1061.9
20260502060511 5 329 0.0 0.0 0.00 0.03 0.00 51 1061.9
20260502060012 5 329 0.0 0.0 0.00 0.03 0.00 52 1061.9
20260502055514 5 327 0.0 0.0 0.00 0.03 0.00 52 1061.9
20260502055006 5 326 0.0 0.0 0.00 0.03 0.00 52 1061.9
20260502054508 6 328 0.0 0.0 0.00 0.03 0.00 51 1061.9
20260502054009 6 328 0.0 0.0 0.00 0.03 0.00 51 1061.9
20260502053511 6 327 0.0 0.0 0.00 0.03 0.00 51 1061.9
20260502053013 6 328 0.0 0.0 0.00 0.03 0.00 49 1061.9
20260502052515 6 328 0.0 0.0 0.00 0.03 0.00 49 1061.9
20260502052006 6 328 0.0 0.0 0.00 0.03 0.00 50 1061.9
20260502051509 6 327 0.0 0.0 0.00 0.03 0.00 51 1061.9
20260502051011 6 328 0.0 0.0 0.00 0.03 0.00 51 1061.9
20260502050513 6 328 0.0 0.0 0.00 0.03 0.00 52 1061.9
20260502050017 6 328 0.0 0.0 0.00 0.03 0.00 52 1061.9
20260502045506 6 328 0.0 0.0 0.00 0.03 0.03 52 1061.9
20260502045008 6 328 0.0 0.0 0.00 0.03 0.03 52 1061.9
20260502044509 6 328 0.0 0.0 0.00 0.03 0.03 53 1061.9
20260502044011 6 327 0.0 0.0 0.00 0.03 0.03 53 1061.9
20260502043513 6 326 0.0 0.0 0.00 0.03 0.03 53 1061.9
20260502043015 6 326 0.0 0.0 0.00 0.03 0.03 53 1061.9
20260502042506 6 326 0.0 0.0 0.00 0.03 0.03 53 1061.9
20260502042009 6 324 0.0 0.0 0.00 0.03 0.03 52 1061.9
20260502041511 6 324 0.0 0.0 0.00 0.03 0.03 52 1061.9
20260502041013 6 325 0.0 0.0 0.00 0.03 0.03 52 1061.9
20260502040515 5 324 0.0 0.0 0.00 0.03 0.03 52 1061.9
20260502040006 5 325 0.0 0.0 0.00 0.03 0.03 53 1061.9
20260502035508 5 324 0.0 0.0 0.00 0.03 0.03 53 1061.9
20260502035011 6 325 0.0 0.0 0.00 0.03 0.03 51 1061.9
20260502034511 6 324 0.0 0.0 0.00 0.03 0.03 52 1061.9
20260502034013 6 324 0.0 0.0 0.00 0.03 0.03 52 1061.9
20260502033515 5 325 0.0 0.0 0.00 0.03 0.03 54 1061.9
20260502033007 5 335 0.0 0.0 0.00 0.03 0.03 56 1061.9
20260502032509 5 334 0.0 0.0 0.00 0.03 0.03 55 1061.9
20260502032011 5 333 0.0 0.0 0.00 0.03 0.03 55 1061.9
20260502031513 5 337 0.0 0.0 0.00 0.03 0.03 54 1061.9
20260502031015 5 340 0.0 0.0 0.00 0.03 0.03 54 1061.9
20260502030506 5 343 0.0 0.0 0.00 0.03 0.03 54 1061.9
20260502030008 6 337 0.0 0.0 0.00 0.03 0.03 53 1061.9
20260502025510 5 335 0.0 0.0 0.00 0.03 0.03 53 1061.9
20260502025011 5 332 0.0 0.0 0.00 0.03 0.03 53 1061.9
20260502024513 5 334 0.0 0.0 0.00 0.03 0.03 53 1061.9
20260502024015 6 340 0.0 0.0 0.00 0.03 0.03 51 1061.9
20260502023506 6 331 0.0 0.0 0.00 0.03 0.03 51 1061.9
20260502023008 6 331 0.0 0.0 0.00 0.03 0.03 52 1061.9
20260502022511 6 333 0.0 0.0 0.00 0.03 0.03 53 1061.9
20260502022013 6 333 0.0 0.0 0.00 0.03 0.03 53 1061.9
20260502021515 5 331 0.0 0.0 0.00 0.03 0.03 54 1061.9
20260502021007 6 334 0.0 0.0 0.00 0.03 0.03 53 1061.9
20260502020509 6 331 0.0 0.0 0.00 0.03 0.03 53 1061.9
20260502020010 6 335 0.0 0.0 0.00 0.03 0.03 53 1061.9
20260502015512 6 340 0.0 0.0 0.00 0.03 0.03 52 1061.9
20260502015013 6 339 0.0 0.0 0.00 0.03 0.03 51 1061.9
20260502014515 6 329 0.0 0.0 0.00 0.03 0.03 50 1061.9
20260502014007 6 328 0.0 0.0 0.00 0.03 0.03 49 1061.9
20260502013508 7 328 0.0 0.0 0.00 0.03 0.03 49 1061.9
20260502013011 7 326 0.0 0.0 0.00 0.03 0.03 48 1061.9
20260502012512 7 314 0.0 0.0 0.00 0.03 0.03 47 1061.9
20260502012015 8 323 0.0 0.0 0.00 0.03 0.03 45 1061.9
20260502011506 8 338 0.0 0.0 0.00 0.03 0.03 44 1061.9
20260502011008 8 342 0.0 0.0 0.00 0.03 0.03 43 1061.9
20260502010510 8 340 0.0 0.0 0.00 0.03 0.03 42 1061.9
20260502010022 8 344 0.0 0.0 0.00 0.03 0.03 41 1061.9
20260502005514 9 332 0.0 0.0 0.00 0.03 0.03 41 1061.9
20260502005015 9 325 0.0 0.0 0.00 0.03 0.03 41 1061.9
20260502004507 9 328 0.0 0.0 0.00 0.03 0.03 41 1061.9
20260502004009 9 341 0.0 0.0 0.00 0.03 0.03 41 1061.9
20260502003510 9 326 0.0 0.0 0.00 0.03 0.03 41 1061.9
20260502003012 9 340 0.0 0.0 0.00 0.03 0.03 42 1061.9
20260502002515 9 350 0.0 0.0 0.00 0.03 0.03 40 1061.9
20260502002007 10 357 0.0 0.0 0.00 0.03 0.03 39 1061.9
20260502001508 10 347 0.0 0.0 0.00 0.03 0.03 40 1061.9
20260502001010 10 352 0.0 0.0 0.00 0.03 0.03 40 1061.9
20260502000512 10 330 0.0 0.0 0.00 0.03 0.03 39 1061.9
20260502000024 10 343 0.0 0.0 0.00 0.03 0.03 40 1061.9
20260501235505 9 339 0.0 0.0 0.00 0.03 0.03 40 1061.9
20260501235007 10 341 0.0 0.0 0.00 0.03 0.03 40 1061.9
20260501234509 10 341 0.0 0.0 0.00 0.03 0.03 39 1061.9
20260501234010 10 347 0.0 0.0 0.00 0.03 0.03 38 1061.9
20260501233512 10 340 0.0 0.0 0.00 0.03 0.03 38 1061.9
20260501233016 11 324 0.0 0.0 0.00 0.03 0.03 38 1061.9
20260501232507 10 310 0.0 0.0 0.00 0.03 0.03 39 1061.9
20260501232008 10 355 0.0 0.0 0.00 0.03 0.03 39 1061.9
20260501231510 10 352 0.0 0.0 0.00 0.03 0.03 39 1061.9
20260501231012 11 7 0.0 0.0 0.00 0.03 0.03 38 1061.9
20260501230514 11 345 0.0 0.0 0.00 0.03 0.03 38 1061.9
20260501230006 11 2 0.0 0.0 0.00 0.03 0.03 38 1061.9
20260501225507 11 353 0.0 0.0 0.00 0.03 0.03 38 1061.9
20260501225009 11 340 0.0 0.0 0.00 0.03 0.03 38 1061.9
20260501224511 11 336 0.0 0.0 0.00 0.03 0.03 38 1061.9
20260501224013 10 357 0.0 0.0 0.00 0.03 0.03 38 1061.9
20260501223514 10 354 0.0 0.0 0.00 0.03 0.03 38 1061.9
20260501223006 11 340 0.0 0.0 0.00 0.03 0.03 37 1061.9
20260501222508 11 356 0.0 0.0 0.00 0.03 0.03 37 1061.9
20260501222009 10 331 0.0 0.0 0.00 0.03 0.03 36 1061.9
20260501221513 10 334 0.0 0.0 0.00 0.03 0.03 38 1061.9
20260501221014 10 353 0.0 0.0 0.00 0.03 0.03 38 1061.9
20260501220516 10 4 0.0 0.0 0.00 0.03 0.03 39 1061.9
20260501220007 11 0 0.0 0.0 0.00 0.03 0.03 39 1061.9
20260501215509 11 354 0.0 0.0 0.00 0.03 0.03 40 1061.9
20260501215011 11 358 0.0 0.0 0.00 0.03 0.03 40 1061.9
20260501214513 10 358 0.0 0.0 0.00 0.03 0.03 40 1061.9
20260501214014 10 358 0.0 0.0 0.00 0.03 0.03 40 1061.9
20260501213506 10 339 0.0 0.0 0.00 0.03 0.03 40 1061.9
20260501213008 10 358 0.0 0.0 0.00 0.03 0.03 41 1061.9
20260501212509 10 329 0.0 0.0 0.00 0.03 0.03 39 1061.9
20260501212011 11 351 0.0 0.0 0.00 0.03 0.03 40 1061.9
20260501211513 11 333 0.0 0.0 0.00 0.03 0.03 39 1061.9
20260501211016 10 356 0.0 0.0 0.00 0.03 0.03 41 1061.9
20260501210506 10 324 0.0 0.0 0.00 0.03 0.03 40 1061.9
20260501210009 10 0 0.0 0.0 0.00 0.03 0.03 41 1061.9
20260501205511 10 350 0.0 0.0 0.00 0.03 0.03 41 1061.9
20260501205013 10 338 0.0 0.0 0.00 0.03 0.03 40 1061.9
20260501204515 10 305 0.0 0.0 0.00 0.03 0.03 40 1061.9
20260501204016 10 317 0.0 0.0 0.00 0.03 0.03 40 1061.9
20260501203508 10 351 0.0 0.0 0.00 0.03 0.03 41 1061.9
20260501203010 9 354 0.0 0.0 0.00 0.03 0.03 41 1061.9
20260501202511 10 340 0.0 0.0 0.00 0.03 0.03 41 1061.9
20260501202013 10 355 0.0 0.0 0.00 0.03 0.03 42 1061.9
20260501201515 10 316 0.0 0.0 0.00 0.03 0.03 40 1061.9
20260501201006 10 346 0.0 0.0 0.00 0.03 0.03 39 1061.9
20260501200508 10 350 0.0 0.0 0.00 0.03 0.03 41 1061.9
20260501200010 10 0 0.0 0.0 0.00 0.03 0.03 42 1061.9
20260501195512 9 345 0.0 0.0 0.00 0.03 0.03 43 1061.9
20260501195013 10 346 0.0 0.0 0.00 0.03 0.03 43 1061.9
20260501194506 9 345 0.0 0.0 0.00 0.03 0.03 43 1061.9
20260501194008 8 349 0.0 0.0 0.00 0.03 0.03 42 1061.9
20260501193510 9 353 0.0 0.0 0.00 0.03 0.03 42 1061.9
20260501193011 9 344 0.0 0.0 0.00 0.03 0.03 43 1061.9
20260501192513 9 333 0.0 0.0 0.00 0.03 0.03 42 1061.9
20260501192015 10 0 0.0 0.0 0.00 0.03 0.03 43 1061.9
20260501191507 9 298 0.0 0.0 0.00 0.03 0.03 42 1061.9
20260501191008 9 290 0.0 0.0 0.00 0.03 0.03 45 1061.9
20260501190510 9 309 0.0 0.0 0.00 0.03 0.03 44 1061.9
20260501190012 9 332 0.0 0.0 0.00 0.03 0.03 46 1061.9
20260501185514 8 312 0.0 0.0 0.00 0.03 0.03 44 1061.9
20260501185005 8 336 0.0 0.0 0.00 0.03 0.03 43 1061.9
20260501184507 8 352 0.0 0.0 0.00 0.03 0.03 46 1061.9
20260501184009 8 305 0.0 0.0 0.00 0.03 0.03 46 1061.9
20260501183511 8 336 0.0 0.0 0.00 0.03 0.03 46 1061.9
20260501183014 8 348 0.0 0.0 0.00 0.03 0.03 46 1061.9
20260501182515 8 328 0.0 0.0 0.00 0.03 0.03 46 1061.9
20260501182007 8 326 0.0 0.0 0.00 0.03 0.03 46 1061.9
20260501181509 9 308 0.0 0.0 0.00 0.03 0.03 46 1061.9
20260501181010 8 314 0.0 0.0 0.00 0.03 0.03 49 1061.9
20260501180512 7 324 0.0 0.0 0.00 0.03 0.03 48 1061.9
20260501180014 7 302 0.0 0.0 0.00 0.03 0.03 48 1061.9
20260501175505 8 314 0.0 0.0 0.00 0.03 0.03 47 1061.9
20260501175008 7 352 0.0 0.0 0.00 0.03 0.03 48 1061.9
20260501174509 8 302 0.0 0.0 0.00 0.03 0.03 47 1061.9
20260501174011 8 300 0.0 0.0 0.00 0.03 0.03 51 1061.9
20260501173512 7 303 0.0 0.0 0.00 0.03 0.03 50 1061.9
20260501173014 7 315 0.0 0.0 0.00 0.03 0.03 52 1061.9
20260501172506 7 305 0.0 0.0 0.00 0.03 0.03 50 1061.9
20260501172009 8 342 0.0 0.0 0.00 0.03 0.03 50 1061.9
20260501171511 7 349 0.0 0.0 0.00 0.03 0.03 50 1061.9
20260501171012 7 336 0.0 0.0 0.00 0.03 0.03 50 1061.9
20260501170514 6 291 0.0 0.0 0.00 0.03 0.03 51 1061.9
20260501165509 7 324 0.0 0.0 0.00 0.03 0.03 50 1061.9
20260501165010 7 296 0.0 0.0 0.00 0.00 0.00 51 1061.9
20260501164512 7 324 0.0 0.0 0.00 0.00 0.00 51 1061.9
20260501164015 7 333 0.0 0.0 0.00 0.00 0.00 50 1061.9
20260501163507 6 336 0.0 0.0 0.00 0.00 0.00 51 1061.9
20260501163008 7 339 0.0 0.0 0.00 0.00 0.00 51 1061.9
20260501162510 7 312 0.0 0.0 0.00 0.00 0.00 54 1061.9
20260501162012 6 313 0.0 0.0 0.00 0.00 0.00 53 1061.9
20260501161514 6 316 0.0 0.0 0.00 0.00 0.00 53 1061.9
20260501161015 6 297 0.0 0.0 0.00 0.00 0.00 54 1061.9
20260501160507 6 284 0.0 0.0 0.00 0.00 0.00 54 1061.9
20260501160009 6 289 0.0 0.0 0.00 0.00 0.00 53 1061.9
20260501155511 6 305 0.0 0.0 0.00 0.00 0.00 55 1061.9
20260501155012 6 324 0.0 0.0 0.00 0.00 0.00 56 1061.9
20260501154514 6 272 0.0 0.0 0.00 0.00 0.00 53 1061.9
20260501154006 6 289 0.0 0.0 0.00 0.00 0.00 57 1061.9
20260501153508 6 299 0.0 0.0 0.00 0.00 0.00 56 1061.9
20260501153010 7 324 0.0 0.0 0.00 0.00 0.00 56 1061.9
20260501152512 7 313 0.0 0.0 0.00 0.00 0.00 57 1061.9